GW2790 Weather Reports


time (UTC)temp
F
wind
direction
speed
knots
gust
knots
rain 1hr
in
rain 24hr
in
rain mn
in
humidity
%
barometer
mb
20260505152516 63 0.0 0.0 0.00 0.00 0.00 44 1013.3
20260505151516 61 250 0.0 0.9 0.00 0.00 0.00 44 1013.2
20260505150519 60 0.0 0.0 0.00 0.00 0.00 44 1013.2
20260505140518 50 0.0 0.0 0.00 0.00 0.00 44 1012.7
20260505124515 43 0.0 0.0 0.00 0.00 0.00 44 1011.9
20260505123516 43 0.0 0.0 0.00 0.00 0.00 45 1011.8
20260505122537 43 0.0 0.0 0.00 0.00 0.00 44 1011.6
20260505121517 44 0.0 0.0 0.00 0.00 0.00 44 1011.5
20260505120519 44 0.0 0.0 0.00 0.00 0.00 44 1011.4
20260505115515 44 0.0 0.0 0.00 0.00 0.00 45 1011.4
20260505114515 44 0.0 0.0 0.00 0.00 0.00 45 1011.3
20260505113517 45 39 0.0 0.9 0.00 0.00 0.00 45 1011.3
20260505112515 45 0.0 0.0 0.00 0.00 0.00 45 1011.1
20260505111525 45 0.0 0.0 0.00 0.00 0.00 45 1011.0
20260505110517 45 216 0.9 0.9 0.00 0.00 0.00 46 1011.0
20260505101535 46 0.0 0.0 0.00 0.00 0.00 47 1010.4
20260505100516 46 0.0 0.0 0.00 0.00 0.00 45 1010.2
20260505095515 46 0.0 0.0 0.00 0.00 0.00 45 1010.2
20260505094515 46 0.0 0.0 0.00 0.00 0.00 45 1010.1
20260505093515 47 0.0 0.0 0.00 0.00 0.00 45 1010.0
20260505092518 47 0.0 0.0 0.00 0.00 0.00 45 1010.0
20260505091517 47 0.0 0.0 0.00 0.00 0.00 46 1010.0
20260505090517 47 0.0 0.0 0.00 0.00 0.00 46 1009.9
20260505085535 48 0.0 0.0 0.00 0.00 0.00 46 1009.8
20260505084517 48 0.0 0.0 0.00 0.00 0.00 46 1009.7
20260505083516 49 0.0 0.0 0.00 0.00 0.00 46 1009.7
20260505082536 49 0.0 0.0 0.00 0.00 0.00 46 1009.7
20260505081535 50 0.0 0.0 0.00 0.00 0.00 46 1009.6
20260505080515 50 0.0 0.0 0.00 0.00 0.00 46 1009.6
20260505075516 51 0.0 0.0 0.00 0.00 0.00 47 1009.5
20260505074517 51 0.0 0.0 0.00 0.00 0.00 47 1009.5
20260505073536 52 240 0.0 0.0 0.00 0.00 0.00 47 1009.3
20260505072518 52 0.0 0.0 0.00 0.00 0.00 47 1009.3
20260505071537 52 306 0.0 1.7 0.00 0.00 0.00 47 1009.2
20260505070517 53 119 0.0 0.0 0.00 0.00 0.00 47 1009.1
20260505065515 54 243 0.0 1.7 0.00 0.00 0.00 47 1009.0
20260505064515 53 193 0.0 0.9 0.00 0.00 0.00 48 1008.8
20260505063515 55 0.0 0.0 0.00 0.00 0.00 48 1008.8
20260505062535 55 0.0 0.0 0.00 0.00 0.00 48 1008.7
20260505061515 55 109 0.0 0.9 0.00 0.00 0.00 48 1008.7
20260505060517 56 0.0 0.0 0.00 0.00 0.00 48 1008.6
20260505055537 57 0.0 0.0 0.00 0.00 0.00 48 1008.5
20260505054539 57 0.0 0.0 0.00 0.00 0.00 49 1008.5
20260505053516 59 0.0 0.0 0.00 0.00 0.00 49 1008.4
20260505052538 58 0.0 0.0 0.00 0.00 0.00 49 1008.3
20260505051515 60 0.0 0.0 0.00 0.00 0.00 49 1008.2
20260505050517 60 0.0 0.0 0.00 0.00 0.00 49 1008.1
20260505041537 63 109 0.0 0.0 0.00 0.00 0.00 50 1007.7
20260505040516 63 333 0.0 0.9 0.00 0.00 0.00 50 1007.6
20260505035517 64 0.0 0.0 0.00 0.00 0.00 51 1007.5
20260505034516 66 313 0.0 0.9 0.00 0.00 0.00 51 1007.3
20260505033523 66 0.0 0.0 0.00 0.00 0.00 51 1007.1
20260505032515 68 0.0 0.0 0.00 0.00 0.00 51 1007.0
20260505031515 70 0.0 0.0 0.00 0.00 0.00 51 1006.9
20260505030517 71 0.0 0.0 0.00 0.00 0.00 52 1006.7
20260505025518 73 0.0 0.0 0.00 0.00 0.00 52 1006.6
20260505024535 74 0.0 0.0 0.00 0.00 0.00 53 1006.5
20260505023517 77 0.0 0.0 0.00 0.00 0.00 54 1006.4
20260505022535 78 0.0 0.0 0.00 0.00 0.00 55 1006.4
20260505021515 80 0.0 0.0 0.00 0.00 0.00 56 1006.4
20260505020516 83 0.0 0.0 0.00 0.00 0.00 56 1006.4
20260505015520 84 0.0 0.0 0.00 0.00 0.00 56 1006.4
20260505014515 85 0.0 0.0 0.00 0.00 0.00 56 1006.5
20260505013517 85 0.0 0.0 0.00 0.00 0.00 56 1006.6
20260505012516 86 149 0.9 2.6 0.00 0.00 0.00 57 1006.6
20260505011517 87 141 0.9 2.6 0.00 0.00 0.00 56 1006.6
20260505010516 87 121 0.9 4.3 0.00 0.00 0.00 52 1006.7
20260505005517 88 123 2.6 6.1 0.00 0.00 0.00 50 1006.7
20260505004537 88 105 1.7 4.3 0.00 0.00 0.00 54 1006.8
20260505003517 88 111 3.5 7.8 0.00 0.00 0.00 55 1006.9
20260505002515 88 105 1.7 4.3 0.00 0.00 0.00 55 1007.0
20260505001515 88 30 0.9 4.3 0.00 0.00 0.00 55 1007.0
20260505000517 89 86 0.9 3.5 0.00 0.00 0.00 55 1007.0
20260504235515 90 244 0.0 2.6 0.00 0.00 0.00 55 1007.0
20260504234517 90 284 0.0 1.7 0.00 0.00 0.00 55 1007.1
20260504233516 89 307 0.9 4.3 0.00 0.00 0.00 55 1007.1
20260504232516 89 297 0.9 4.3 0.00 0.00 0.00 55 1007.1
20260504231536 90 265 0.0 1.7 0.00 0.00 0.00 55 1007.2
20260504230516 88 50 0.9 4.3 0.00 0.00 0.00 55 1007.3
20260504225535 89 331 1.7 4.3 0.00 0.00 0.00 55 1007.3
20260504224515 90 289 1.7 4.3 0.00 0.00 0.00 55 1007.5
20260504223536 92 193 0.0 0.9 0.00 0.00 0.00 55 1007.5
20260504222517 90 190 0.0 2.6 0.00 0.00 0.00 55 1007.6
20260504221515 88 306 2.6 7.0 0.00 0.00 0.00 54 1007.8
20260504220519 90 345 0.9 3.5 0.00 0.00 0.00 54 1007.9
20260504215517 88 348 0.9 3.5 0.00 0.00 0.00 54 1008.0
20260504214516 88 294 2.6 7.8 0.00 0.00 0.00 54 1008.1
20260504213517 88 310 3.5 7.0 0.00 0.00 0.00 54 1008.2
20260504212516 90 21 0.9 6.1 0.00 0.00 0.00 54 1008.3
20260504211516 88 311 2.6 5.2 0.00 0.00 0.00 54 1008.4
20260504210517 88 276 1.7 5.2 0.00 0.00 0.00 55 1008.4
20260504205517 88 341 1.7 6.1 0.00 0.00 0.00 50 1008.5
20260504204516 89 9 0.9 3.5 0.00 0.00 0.00 50 1008.6
20260504203517 87 347 1.7 6.1 0.00 0.00 0.00 52 1008.7
20260504202515 87 322 3.5 6.1 0.00 0.00 0.00 54 1008.7
20260504201515 88 34 0.9 6.1 0.00 0.00 0.00 50 1008.8
20260504200518 88 338 1.7 6.1 0.00 0.00 0.00 49 1008.9
20260504195515 90 247 0.9 3.5 0.00 0.00 0.00 49 1009.0
20260504194517 87 317 3.5 7.0 0.00 0.00 0.00 50 1009.0
20260504193516 86 337 3.5 7.0 0.00 0.00 0.00 53 1009.1
20260504192517 88 318 2.6 7.0 0.00 0.00 0.00 48 1009.1
20260504191517 88 202 0.9 4.3 0.00 0.00 0.00 47 1009.2
20260504190517 85 300 2.6 7.0 0.00 0.00 0.00 47 1009.2
20260504185517 88 300 0.0 1.7 0.00 0.00 0.00 46 1009.2
20260504184515 86 221 0.9 4.3 0.00 0.00 0.00 46 1009.3
20260504183517 84 197 0.0 1.7 0.00 0.00 0.00 46 1009.4
20260504182521 81 33 0.0 0.9 0.00 0.00 0.00 46 1009.4
20260504181536 81 351 0.9 3.5 0.00 0.00 0.00 45 1009.4
20260504180515 80 303 0.0 2.6 0.00 0.00 0.00 45 1009.5
20260504175517 79 298 1.7 4.3 0.00 0.00 0.00 45 1009.6
20260504174535 77 313 0.9 3.5 0.00 0.00 0.00 44 1009.6
20260504173537 77 323 1.7 3.5 0.00 0.00 0.00 44 1009.6
20260504172517 75 303 0.9 3.5 0.00 0.00 0.00 44 1009.8
20260504171517 74 303 1.7 3.5 0.00 0.00 0.00 43 1009.9
20260504170517 72 332 2.6 5.2 0.00 0.00 0.00 43 1009.9